EUTELSAT QUANTUM

Last updated on Mon Oct 27 2025 00:02:50 GMT+0000 (Coordinated Universal Time)

1 49056U 21069B 25299.48360990 .00000138 00000+0 00000+0 0 9998 2 49056 0.0540 67.8423 0002523 161.4624 27.6369 1.00272198 15583
UTC large
Height (km)
Speed (km/s)
/
Latitude / Longitude
Inclination (degrees)
Orbital Period (minutes)
Azimuth
Elevation
Range (km)
Doppler Factor

Next 0 passes for location: London (51.5072 / 0.1276)

Sorry there are no passes over London.